Regional Weather Roundup
Issued by NWS Kansas City/Pleasant Hill, MO

Home | Current Version | Previous Version | Graphics & Text | Print | Product List | Glossary Off
Versions: 1 2 3 4 5 6 7 8 9 10 11 12 13 14 15 16 17 18 19 20 21 22 23 24 25 26 27 28 29 30 31 32 33 34 35 36 37 38 39 40 41 42 43 44 45 46 47 48 49 50

000
ASUS43 KEAX 041310
RWREAX

WEATHER ROUNDUP FOR EASTERN KANSAS AND NORTHWEST MISSOURI
NATIONAL WEATHER SERVICE KANSAS CITY/PLEASANT HILL MO
800 AM CDT FRI SEP 04 2015

KSZ040-057-103>105-MOZ028-029-037-043-041400-
...KANSAS CITY METROPOLITAN AREA...

CITY           SKY/WX    TMP DP  RH WIND       PRES   REMARKS
K.C. INTL      MOSUNNY   74  68  81 S7        29.98R
K.C. DOWNTOWN  MOSUNNY   77  68  73 S8        29.97R
LEES SUMMIT    SUNNY     74  67  78 S8        29.99R
OLATHE - IXD   MOSUNNY   73  68  84 S8        29.99R
OLATHE - OJC   MOSUNNY   71  68  90 S6        29.98R
LAWRENCE       PTSUNNY   73  68  84 CALM      29.97R

$$

MOZ001>008-011>017-020>025-030>033-038>040-044>046-053-054-041400-
...NORTHERN AND CENTRAL MISSOURI...

CITY           SKY/WX    TMP DP  RH WIND       PRES   REMARKS
ST. JOSEPH     SUNNY     71  68  90 SE6       29.97R
MOSBY          SUNNY     68  68 100 CALM      29.98R
WARRENSBURG    MOSUNNY   72  68  88 S3        29.99R
WHITEMAN AFB   MOSUNNY   73  68  87 S5        29.98R
CLINTON          N/A     73  72  94 CALM      30.00R
SEDALIA        MOSUNNY   72  68  87 S6        30.01R
WARSAW         NOT AVBL
CHILLICOTHE      N/A     73  70  90 CALM      30.00R
KIRKSVILLE     SUNNY     72  68  87 S5        30.01R

$$

MOZ041-047>049-056>058-063>065-088>090-097-041400-
...EASTERN AND SOUTHERN MISSOURI...

CITY           SKY/WX    TMP DP  RH WIND       PRES   REMARKS
ST. LOUIS INTL MOSUNNY   79  69  71 CALM      30.02R
SPIRIT OF STL  SUNNY     72  71  97 CALM      30.01R FOG
COLUMBIA       MOSUNNY   72  69  90 SE6       30.01R
JEFFERSON CITY MOSUNNY   71  69  93 SE5       30.00R
ROLLA          MOSUNNY   74  68  81 S7        30.03R
OSAGE BEACH    SUNNY     72  66  83 SE3       30.02R
SPRINGFIELD    MOSUNNY   74  68  81 SE9       30.03R
BRANSON        PTSUNNY   72  68  88 CALM      30.05R
JOPLIN         MOSUNNY   74  67  78 S7        30.00R
WEST PLAINS    MOSUNNY   72  68  87 CALM      30.07R FOG

$$

IAZ060-094-KSZ022-034>040-054-083-096-NEZ052-066-093-041400-
...KANSAS...SOUTHEAST NEBRASKA AND IOWA...

CITY           SKY/WX    TMP DP  RH WIND       PRES   REMARKS
TOPEKA         MOSUNNY   74  68  81 CALM      29.96R
MANHATTAN      SUNNY     76  66  71 S5        29.92R
EMPORIA        SUNNY     70  68  93 S8        29.96R
CHANUTE        MOSUNNY   70  68  93 SE7       29.98R
WICHITA        MOSUNNY   71  64  78 S10       29.94R
OMAHA          CLOUDY    74  68  81 SE12      29.93R
LINCOLN        CLOUDY    75  68  78 SE5       29.92R
FALLS CITY     SUNNY     73  68  84 S6        29.94R
LAMONI         MOSUNNY   72  68  87 S7        29.99R
DES MOINES     MOSUNNY   73  67  81 S8        29.96R

$$




USA.gov is the U.S. government's official web portal to all federal, state and local government web resources and services.